User: anonymous   Login
Location: Valdosta
(30.8330°N, 83.2790°W)
Time: 06:25:30
(UTC-04:00)
Language:

Uribyol 2 - Orbit

View from above orbital plane
View from above orbital plane
View from above satellite
View from above satellite

Ground track
Ground track

The orbit data is extracted from the following two-line orbital elements,

1 22828U 93061F   15247.86298239  .00000043  00000-0  33487-4 0  9993
2 22828  98.7013 197.2888 0010741  41.9580 318.2424 14.30526252112812
Epoch (UTC): 04 September 2015 20:42:41
Eccentricity: 0.0010741
inclination: 98.7013°
perigee height: 782 km
apogee height: 797 km
right ascension of ascending node: 197.2888°
argument of perigee: 41.9580°
revolutions per day: 14.30526252
mean anomaly at epoch: 318.2424°
orbit number at epoch: 11281

The dashed part of the orbit path shows where the satellite is in the earth's shadow,  

DLR